[[{"header":{"parameterUnit":"m.s-1","parameterCategory":2,"la1":30.2991,"la2":30.254,"lo1":-89.0895,"lo2":-89.0444,"dy":0.0017,"dx":0.0017,"nx":28,"ny":28,"refTime":"2025-11-20T09:00:00:Z","depth":"0","parameterNumber":2,"parameterNumberName":"U-component_of_CURRENTS"},"data":[0,0,0,0,0,0,0,0,0,0,0,0,0,0,0,0,0,0,0,0,0,0,0,0,0,0,0,0,0,0,0,0,0,0,0,0,0,0,0,0,0,0,0,0,0,0,0,0,0,0,0,0,0,0,0,0,0,0,0.2009,0.2009,0,0.2054,0.2054,0.2054,0.2064,0.2064,0.2064,0.2064,0.2066,0.2066,0.2066,0,0,0,0,0,0,0,0,0,0,0,0,0,0.1931,0.1933,0.2009,0.2009,0.201,0.2054,0.2054,0.2054,0.2064,0.2064,0.2064,0.2064,0.2066,0.2066,0.2066,0,0,0,0,0,0,0,0,0,0,0,0,0,0.1968,0.1933,0.2009,0.2021,0.2023,0.2053,0.2054,0.2055,0.2064,0.2064,0.2064,0.2064,0.2066,0.2066,0.2066,0.2074,0,0,0.2068,0.2068,0,0,0,0,0,0,0,0,0.1966,0.1971,0.2019,0.2021,0.2023,0.2054,0.2028,0.206,0.2064,0.2047,0.2064,0.2063,0.2059,0.206,0.2068,0.2074,0.2074,0.2068,0.2068,0.2068,0.2068,0,0,0,0,0,0,0,0.1963,0.1969,0.2025,0.202,0.2022,0.2025,0.203,0.2034,0.2052,0.2049,0.205,0.2057,0.206,0.2067,0.2068,0.2074,0.2068,0.2068,0.2068,0.2068,0.211,0.211,0,0,0,0,0,0,0.1961,0.1966,0.2024,0.2026,0.1995,0.2027,0.2032,0.2043,0.2053,0.2055,0.2057,0.2058,0.2067,0.2067,0.2068,0.2092,0.2068,0.2068,0.2068,0.2109,0.211,0.2111,0,0,0,0,0,0,0.196,0.1966,0.2022,0.1998,0.2006,0.2028,0.2041,0.2044,0.2054,0.2061,0.2061,0.2065,0.2067,0.2067,0.2079,0.2092,0.2068,0.2069,0.2108,0.2109,0.211,0.2131,0,0,0,0,0,0,0.1957,0.1965,0.1971,0.1998,0.2007,0.2043,0.2042,0.2045,0.206,0.2061,0.2067,0.2067,0.2067,0.2079,0.2079,0.2092,0.2069,0.2107,0.2108,0.211,0.2129,0.2133,0.2136,0,0,0,0,0,0.1954,0.1962,0.1971,0.1978,0.2015,0.2044,0.2048,0.2062,0.2061,0.2069,0.2075,0.2067,0.209,0.208,0.208,0.2093,0.2106,0.2108,0.211,0.2128,0.2132,0.2136,0,0,0,0,0,0,0.1927,0.1965,0.1975,0.1993,0.2019,0.2046,0.2054,0.2064,0.2077,0.2075,0.2076,0.2077,0.2095,0.2092,0.2081,0.2111,0.2097,0.21,0.2111,0.2115,0.2118,0.2118,0.2069,0,0,0,0,0,0.1926,0.1944,0.1979,0.1993,0.2006,0.2031,0.2043,0.2055,0.2072,0.2077,0.2082,0.209,0.2105,0.2107,0.2118,0.213,0.2168,0.214,0.2143,0.2146,0.2147,0.2205,0.2214,0.2117,0.2117,0.2117,0,0,0.1918,0.1942,0.1951,0.1989,0.2008,0.2033,0.2037,0.2059,0.2077,0.2074,0.2093,0.2102,0.2112,0.2131,0.2138,0.2128,0.2204,0.2149,0.2151,0.215,0.2208,0.2218,0.2226,0.2119,0.2119,0.2118,0,0,0.1915,0.1935,0.1952,0.1976,0.2011,0.2031,0.2039,0.207,0.208,0.2103,0.2109,0.2126,0.2141,0.2154,0.2162,0.219,0.2223,0.2194,0.2206,0.2262,0.2271,0.2278,0.2386,0.2403,0.2191,0.2191,0.2191,0,0.1904,0.1933,0.1959,0.1984,0.2003,0.2031,0.2052,0.2073,0.2102,0.2113,0.211,0.2153,0.2154,0.2189,0.2196,0.2197,0.2253,0.2187,0.2267,0.2275,0.2283,0.239,0.2409,0.2193,0.2193,0.2192,0.2192,0,0.1918,0.1942,0.1953,0.1997,0.2019,0.2042,0.2077,0.2097,0.2112,0.2132,0.2169,0.2183,0.2208,0.2213,0.2209,0.2262,0.2297,0.2269,0.2256,0.2294,0.2406,0.2425,0.2194,0.2194,0.2194,0.2193,0,0,0.1892,0.1952,0.1957,0.1978,0.2027,0.2048,0.208,0.2119,0.2153,0.2171,0.2218,0.223,0.2241,0.2252,0.2259,0.2298,0.2407,0.2304,0.2306,0.2411,0.2584,0.2613,0.2637,0.2394,0.2397,0.2398,0.2658,0,0.1897,0.1942,0.197,0.2007,0.2034,0.2067,0.2099,0.2135,0.2175,0.2229,0.2247,0.2299,0.2257,0.229,0.2315,0.2395,0.2451,0.2343,0.253,0.2537,0.2557,0.2656,0.2607,0.2832,0.2676,0.2679,0.2682,0,0.19,0.1935,0.197,0.2024,0.2038,0.206,0.2122,0.2159,0.2233,0.2268,0.2311,0.2349,0.242,0.2377,0.252,0.2458,0.2516,0.2568,0.2579,0.2605,0.2599,0.276,0.2873,0.2789,0.2711,0.2709,0.2706,0,0.1874,0.1931,0.1958,0.1976,0.2042,0.2056,0.2093,0.2162,0.2213,0.2312,0.2383,0.2445,0.2531,0.2584,0.268,0.2618,0.2859,0.2788,0.2874,0.288,0.2873,0.2873,0.292,0.2881,0.2881,0.288,0.2879,0,0.1869,0.189,0.1946,0.1962,0.1993,0.2045,0.2101,0.2147,0.2251,0.2327,0.2404,0.2498,0.2586,0.2721,0.2754,0.2909,0.2926,0.2915,0.2949,0.2884,0.2882,0.2833,0.2779,0.289,0.2888,0.2886,0.2884,0,0.1832,0.1873,0.1902,0.1962,0.1979,0.1999,0.2095,0.2149,0.2263,0.2378,0.2424,0.2596,0.2781,0.2891,0.3047,0.3049,0.3095,0.3198,0.3147,0.3168,0.3119,0.3068,0.3056,0.2954,0.3343,0.3345,0.3347,0,0.1815,0.1829,0.1881,0.1897,0.1919,0.1972,0.2013,0.2123,0.2192,0.2424,0.2477,0.2723,0.2858,0.315,0.3237,0.3383,0.3211,0.3394,0.3229,0.3147,0.3116,0.2937,0.2836,0.3265,0.3266,0.3267,0.3268,0,0.1778,0.1793,0.1819,0.1853,0.1884,0.1934,0.2004,0.2062,0.2213,0.2343,0.2529,0.2676,0.2998,0.3154,0.3379,0.3425,0.3238,0.3415,0.3332,0.3072,0.288,0.2788,0.3098,0.3275,0.3275,0.3274,0.3274,0.3273,0.1736,0.1741,0.1775,0.1806,0.184,0.188,0.1898,0.2007,0.2119,0.2294,0.248,0.2689,0.3012,0.3329,0.3362,0.3419,0.3309,0.333,0.3295,0.3135,0.2955,0.3307,0.3497,0.3497,0.3498,0.3498,0.3498,0,0.1683,0.1705,0.1732,0.1756,0.1767,0.181,0.1878,0.1896,0.1989,0.2213,0.2381,0.274,0.2975,0.3186,0.3395,0.3317,0.3112,0.3228,0.2948,0.2863,0.3216,0.3126,0.3239,0.3239,0.3239,0.3239,0.3239,0.3239,0.1656,0.1663,0.1688,0.1682,0.1694,0.1677,0.1695,0.174,0.1865,0.2083,0.2292,0.2518,0.2923,0.3264,0.3293,0.3211,0.2907,0.2839,0.2744,0.2992,0.2996,0.2999,0.2899,0.2962,0.2962,0.2273,0.2268,0.2264]},{"header":{"parameterUnit":"m.s-1","parameterCategory":2,"la1":30.2991,"la2":30.254,"lo1":-89.0895,"lo2":-89.0444,"dy":0.0017,"dx":0.0017,"nx":28,"ny":28,"refTime":"2025-11-20T09:00:00:Z","depth":"0","parameterNumber":3,"parameterNumberName":"V-component_of_CURRENTS"},"data":[0,0,0,0,0,0,0,0,0,0,0,0,0,0,0,0,0,0,0,0,0,0,0,0,0,0,0,0,0,0,0,0,0,0,0,0,0,0,0,0,0,0,0,0,0,0,0,0,0,0,0,0,0,0,0,0,0,0,0.0003,0.0003,0,-0.0059,-0.006,-0.006,-0.0109,-0.0109,-0.0109,-0.011,-0.0206,-0.0208,-0.021,0,0,0,0,0,0,0,0,0,0,0,0,0,0.0049,0.0048,0.0003,0.0003,0.0002,-0.0059,-0.006,-0.0061,-0.0108,-0.0109,-0.0109,-0.011,-0.0205,-0.0208,-0.021,0,0,0,0,0,0,0,0,0,0,0,0,0,0.0011,0.0048,0.0004,-0.0029,-0.0032,-0.0059,-0.006,-0.0061,-0.0108,-0.0109,-0.011,-0.011,-0.0204,-0.0207,-0.0211,-0.0219,0,0,-0.0221,-0.0222,0,0,0,0,0,0,0,0,0.0014,0.001,-0.0023,-0.0026,-0.003,-0.0076,-0.0079,-0.0115,-0.0108,-0.008,-0.011,-0.011,-0.0165,-0.0171,-0.0182,-0.0224,-0.0228,-0.0221,-0.0223,-0.0224,-0.0225,0,0,0,0,0,0,0,0.0016,0.0012,-0.0022,-0.0024,-0.0028,-0.0051,-0.0057,-0.0086,-0.0119,-0.0083,-0.0086,-0.0092,-0.0167,-0.0179,-0.0185,-0.0229,-0.0221,-0.0224,-0.0226,-0.0227,-0.0283,-0.0283,0,0,0,0,0,0,0.0028,0.0015,-0.002,-0.0024,-0.0009,-0.0051,-0.0058,-0.0061,-0.0119,-0.0127,-0.0091,-0.0094,-0.0173,-0.0181,-0.0188,-0.0206,-0.0224,-0.0227,-0.0229,-0.0283,-0.0283,-0.0282,0,0,0,0,0,0,0.0029,0.0025,-0.0017,-0.0006,-0.0013,-0.0051,-0.0055,-0.0062,-0.0074,-0.0124,-0.0134,-0.0096,-0.0174,-0.0184,-0.0209,-0.021,-0.0229,-0.0232,-0.0284,-0.0283,-0.0283,-0.0238,0,0,0,0,0,0,0.0031,0.0026,0.0029,-0.0005,-0.0013,-0.0028,-0.0055,-0.0063,-0.0076,-0.008,-0.0131,-0.0141,-0.0175,-0.0204,-0.0212,-0.0215,-0.0234,-0.0285,-0.0284,-0.0283,-0.024,-0.0236,-0.0233,0,0,0,0,0,0.0032,0.0039,0.0029,0.0025,-0.0008,-0.0028,-0.0034,-0.0064,-0.0076,-0.0077,-0.0109,-0.0139,-0.0204,-0.0206,-0.0216,-0.022,-0.0285,-0.0284,-0.0283,-0.0242,-0.0237,-0.0233,0,0,0,0,0,0,0.006,0.0033,0.0023,0.0021,0.0001,-0.0035,-0.0039,-0.0058,-0.0084,-0.0088,-0.0134,-0.0146,-0.0168,-0.0195,-0.0196,-0.0231,-0.0249,-0.025,-0.0215,-0.021,-0.0206,-0.0215,-0.0237,0,0,0,0,0,0.0068,0.0066,0.0038,0.0037,0.003,-0.0002,-0.0013,-0.0032,-0.006,-0.0073,-0.0107,-0.0141,-0.0171,-0.0191,-0.0219,-0.0239,-0.0255,-0.0247,-0.0243,-0.0239,-0.0252,-0.028,-0.028,-0.0279,-0.0279,-0.0279,0,0,0.0078,0.0065,0.0062,0.0043,0.0025,0.0015,-0.0011,-0.0023,-0.0035,-0.0079,-0.0101,-0.0128,-0.0171,-0.0194,-0.0207,-0.0218,-0.0238,-0.0238,-0.0235,-0.025,-0.0278,-0.0279,-0.0279,-0.0278,-0.0278,-0.0278,0,0,0.0094,0.0086,0.0087,0.0074,0.0053,0.0033,0.0033,0.0002,-0.0015,-0.0035,-0.007,-0.0097,-0.0139,-0.0175,-0.0197,-0.0189,-0.0214,-0.0191,-0.0186,-0.0212,-0.0212,-0.0213,-0.0193,-0.0193,-0.0193,-0.0193,-0.0193,0,0.0107,0.0105,0.0085,0.0082,0.0074,0.0044,0.0043,0.0021,-0.0014,-0.0024,-0.0036,-0.0099,-0.0135,-0.0172,-0.0173,-0.0183,-0.0185,-0.02,-0.0207,-0.0209,-0.0211,-0.0191,-0.0191,-0.0191,-0.0191,-0.0191,-0.0191,0,0.012,0.0119,0.012,0.0106,0.0095,0.0093,0.0062,0.0051,0.0032,0.0008,-0.0023,-0.0071,-0.0107,-0.0123,-0.0152,-0.0181,-0.017,-0.0195,-0.022,-0.0208,-0.0187,-0.0188,-0.0187,-0.0188,-0.0189,-0.0189,0,0,0.0147,0.0132,0.0134,0.0136,0.011,0.0107,0.009,0.0068,0.0074,0.0024,0.0029,-0.005,-0.007,-0.0098,-0.0133,-0.017,-0.0174,-0.0189,-0.0191,-0.0169,-0.0195,-0.0158,-0.0156,-0.02,-0.0201,-0.0202,-0.016,0,0.0164,0.0173,0.0154,0.0162,0.0165,0.0136,0.0132,0.0109,0.0093,0.0095,0.0028,0.0026,-0.0061,-0.0053,-0.0116,-0.0142,-0.0181,-0.0181,-0.0211,-0.0211,-0.0182,-0.0159,-0.0191,-0.0156,-0.0161,-0.0161,-0.0161,0,0.0183,0.0189,0.0202,0.0203,0.0203,0.0203,0.0205,0.02,0.0182,0.0177,0.0135,0.0107,0.0055,-0.0007,-0.0103,-0.0094,-0.0154,-0.0193,-0.0193,-0.0184,-0.0179,-0.0177,-0.0158,-0.036,-0.0163,-0.0163,-0.0163,0,0.0225,0.0223,0.024,0.0239,0.0233,0.0238,0.0239,0.0227,0.0267,0.0251,0.031,0.0196,0.0232,0.0086,0.0005,-0.0047,-0.007,-0.0144,-0.0177,-0.0172,-0.0221,-0.022,-0.0409,-0.0234,-0.0235,-0.0235,-0.0235,0,0.0256,0.027,0.0266,0.0279,0.0314,0.0292,0.0348,0.0332,0.0378,0.0473,0.0373,0.0453,0.0259,0.0231,0.0066,-0.0021,-0.0021,-0.0171,-0.0169,-0.02,-0.0197,-0.0393,-0.0502,-0.0233,-0.0233,-0.0234,-0.0234,0,0.0301,0.0295,0.0321,0.0328,0.0338,0.037,0.0448,0.0509,0.0536,0.0673,0.0697,0.0688,0.0649,0.0467,0.0309,0.0138,-0.0104,-0.0037,-0.0031,-0.0031,-0.0301,-0.0403,-0.0553,-0.0629,-0.01,-0.0099,-0.0098,0,0.0326,0.0345,0.0373,0.0412,0.0421,0.0479,0.0546,0.0582,0.0686,0.0841,0.0941,0.0958,0.0993,0.0783,0.0465,0.0199,-0.0012,0.0006,-0.0139,-0.0315,-0.043,-0.0502,-0.0562,-0.0167,-0.0166,-0.0166,-0.0166,0,0.0384,0.0393,0.0423,0.051,0.0578,0.0672,0.078,0.0894,0.1,0.1135,0.1324,0.1366,0.1174,0.0911,0.0562,0.0336,-0.0149,0.0002,-0.0211,-0.0524,-0.0588,-0.0657,-0.0159,-0.0165,-0.0165,-0.0165,-0.0165,-0.0165,0.0439,0.0482,0.0543,0.0633,0.0721,0.0886,0.101,0.1159,0.1363,0.1599,0.1606,0.1699,0.128,0.0783,0.0479,-0.0125,-0.0124,-0.0351,-0.0459,-0.0514,-0.0615,-0.0078,-0.0067,-0.0067,-0.0066,-0.0066,-0.0066,0,0.0534,0.0591,0.0674,0.0808,0.0951,0.0971,0.1193,0.1346,0.1615,0.1778,0.1919,0.1742,0.1227,0.0673,-0.0124,-0.0529,-0.071,-0.0756,-0.093,-0.0969,-0.0528,-0.0563,-0.0622,-0.0622,-0.0622,-0.0622,-0.0621,-0.0621,0.0594,0.0707,0.0761,0.101,0.1112,0.1337,0.1481,0.1678,0.1823,0.2022,0.2051,0.2039,0.1583,0.0179,-0.0773,-0.0997,-0.1305,-0.1351,-0.1459,-0.1244,-0.1217,-0.1191,-0.1254,-0.1457,-0.1458,-0.1882,-0.1887,-0.1891]}],[{"header":{"parameterUnit":"m.s-1","parameterCategory":2,"la1":30.2991,"la2":30.254,"lo1":-89.0895,"lo2":-89.0444,"dy":0.0017,"dx":0.0017,"nx":28,"ny":28,"refTime":"2025-11-20T09:00:00:Z","depth":"2","parameterNumber":2,"parameterNumberName":"U-component_of_CURRENTS"},"data":[0,0,0,0,0,0,0,0,0,0,0,0,0,0,0,0,0,0,0,0,0,0,0,0,0,0,0,0,0,0,0,0,0,0,0,0,0,0,0,0,0,0,0,0,0,0,0,0,0,0,0,0,0,0,0,0,0,0,0.1913,0.1913,0,0.1939,0.1939,0.1939,0.1949,0.1949,0.195,0.195,0.1984,0.1985,0.1986,0,0,0,0,0,0,0,0,0,0,0,0,0,0.1845,0.1846,0.1913,0.1913,0.1914,0.1939,0.1939,0.1939,0.1949,0.1949,0.195,0.195,0.1984,0.1985,0.1986,0,0,0,0,0,0,0,0,0,0,0,0,0,0.187,0.1846,0.1912,0.1924,0.1925,0.1939,0.1939,0.1939,0.1949,0.1949,0.195,0.195,0.1984,0.1985,0.1986,0.1988,0,0,0.199,0.199,0,0,0,0,0,0,0,0,0.1869,0.1873,0.1922,0.1923,0.1925,0.1943,0.1928,0.1957,0.1949,0.1937,0.195,0.195,0.1973,0.1975,0.1976,0.199,0.1991,0.199,0.199,0.1991,0.1991,0,0,0,0,0,0,0,0.1867,0.1871,0.192,0.1922,0.1924,0.1919,0.1922,0.1933,0.1952,0.1938,0.194,0.1947,0.1974,0.1974,0.1977,0.1992,0.199,0.1991,0.1991,0.1992,0.2036,0.2036,0,0,0,0,0,0,0.1871,0.187,0.192,0.1921,0.19,0.192,0.1924,0.1935,0.1951,0.1955,0.1947,0.1947,0.1972,0.1975,0.1978,0.2023,0.1991,0.1992,0.1993,0.2035,0.2036,0.2037,0,0,0,0,0,0,0.1869,0.1875,0.1919,0.1898,0.1903,0.1921,0.1933,0.1935,0.1947,0.1958,0.1961,0.1957,0.1973,0.1976,0.1998,0.2023,0.1992,0.1994,0.2035,0.2036,0.2036,0.2086,0,0,0,0,0,0,0.1867,0.1874,0.1882,0.1898,0.1905,0.1932,0.1933,0.1936,0.1952,0.1953,0.1968,0.1971,0.1973,0.1997,0.1999,0.2024,0.1994,0.2034,0.2035,0.2036,0.2084,0.2089,0.2093,0,0,0,0,0,0.1864,0.1873,0.1882,0.1888,0.1916,0.1933,0.1935,0.1947,0.1952,0.1957,0.1971,0.1971,0.2004,0.1998,0.2001,0.2027,0.2034,0.2035,0.2036,0.2082,0.2088,0.2092,0,0,0,0,0,0,0.1841,0.1875,0.1886,0.1903,0.1921,0.1936,0.1942,0.1953,0.1967,0.1971,0.1979,0.1983,0.2008,0.2007,0.2,0.2039,0.2018,0.202,0.2052,0.2057,0.2061,0.2074,0.1995,0,0,0,0,0,0.1842,0.1864,0.1888,0.1904,0.1912,0.193,0.1939,0.1949,0.1965,0.1971,0.1983,0.1996,0.2013,0.2028,0.2033,0.206,0.2084,0.2076,0.208,0.2084,0.2095,0.2146,0.2157,0.204,0.204,0.204,0,0,0.1838,0.1861,0.1873,0.1901,0.1914,0.1937,0.1935,0.1953,0.198,0.1973,0.2007,0.2009,0.202,0.2048,0.206,0.2054,0.2132,0.2085,0.2089,0.2098,0.2149,0.216,0.2171,0.2041,0.2041,0.2041,0,0,0.1845,0.1861,0.1882,0.1901,0.1929,0.1942,0.1952,0.1973,0.1989,0.202,0.2022,0.2043,0.2065,0.2084,0.2096,0.2128,0.2147,0.2124,0.2168,0.2217,0.2228,0.2238,0.2299,0.2313,0.2134,0.2134,0.2134,0,0.184,0.1876,0.1889,0.1915,0.1933,0.1949,0.1973,0.1996,0.2024,0.204,0.2038,0.2083,0.2088,0.2139,0.2148,0.2142,0.2174,0.2151,0.2226,0.2235,0.2244,0.2304,0.232,0.2137,0.2136,0.2136,0.2136,0,0.1862,0.1897,0.1909,0.1955,0.1968,0.1993,0.2023,0.2045,0.2065,0.2086,0.2131,0.2146,0.2176,0.218,0.2178,0.2241,0.2245,0.2221,0.2218,0.226,0.232,0.2335,0.214,0.2139,0.2138,0.2138,0,0,0.1843,0.1915,0.1921,0.1949,0.1994,0.2003,0.2051,0.2093,0.2137,0.216,0.2218,0.2242,0.2247,0.2262,0.2265,0.2309,0.2401,0.2297,0.2298,0.2367,0.2528,0.2473,0.2484,0.2392,0.2395,0.2397,0.2551,0,0.1864,0.1918,0.1949,0.1999,0.2026,0.2057,0.2101,0.2136,0.218,0.2239,0.2265,0.2319,0.2283,0.2315,0.2348,0.239,0.2441,0.2363,0.2468,0.2472,0.2426,0.2499,0.2319,0.2435,0.2566,0.2569,0.2571,0,0.1876,0.1915,0.1962,0.2031,0.2043,0.2075,0.2139,0.2185,0.2266,0.2306,0.2358,0.2387,0.246,0.2423,0.2527,0.248,0.2509,0.2536,0.2542,0.2483,0.2444,0.241,0.2458,0.2596,0.2594,0.2592,0.2591,0,0.1843,0.1923,0.1959,0.1981,0.2055,0.2082,0.2124,0.2197,0.2258,0.2362,0.2433,0.2492,0.2571,0.2599,0.2638,0.2601,0.2752,0.2708,0.2689,0.2687,0.2549,0.2529,0.2785,0.2785,0.2785,0.2784,0.2784,0,0.1851,0.1882,0.1951,0.197,0.2018,0.2068,0.2139,0.2198,0.2313,0.2384,0.2468,0.2545,0.2622,0.2702,0.2696,0.2748,0.2802,0.2723,0.2728,0.2561,0.2541,0.268,0.2665,0.279,0.2789,0.2788,0.2787,0,0.1812,0.1863,0.1906,0.1982,0.2004,0.2033,0.2147,0.22,0.2332,0.2442,0.2488,0.2639,0.2738,0.2802,0.2887,0.2853,0.2883,0.2881,0.2687,0.2664,0.2776,0.2762,0.29,0.29,0.2899,0.2899,0.2898,0,0.1798,0.1818,0.1887,0.1909,0.1948,0.201,0.2049,0.218,0.2249,0.2464,0.2507,0.2685,0.2751,0.2887,0.2874,0.2905,0.291,0.2746,0.2628,0.28,0.2791,0.2778,0.2765,0.2483,0.2479,0.2476,0.2473,0,0.1768,0.1791,0.1823,0.1868,0.1906,0.196,0.2038,0.2101,0.2251,0.2363,0.2497,0.2585,0.2745,0.2707,0.278,0.2745,0.2721,0.2685,0.2942,0.2464,0.2414,0.2402,0.2402,0.2446,0.2449,0.2451,0.2453,0.2454,0.1733,0.1748,0.1787,0.1827,0.187,0.1909,0.1933,0.2019,0.2116,0.2247,0.2366,0.2437,0.2527,0.2538,0.2482,0.2458,0.2619,0.2505,0.2512,0.2523,0.2429,0.2378,0.239,0.2392,0.2394,0.2396,0.2397,0,0.1686,0.1717,0.1746,0.1791,0.1808,0.1854,0.1919,0.1917,0.1974,0.2085,0.2174,0.2075,0.2105,0.2178,0.2121,0.2146,0.2093,0.2051,0.1967,0.1998,0.2025,0.1901,0.1725,0.1722,0.1719,0.1717,0,0,0.1666,0.1675,0.1697,0.172,0.1749,0.1748,0.1769,0.1759,0.1815,0.1803,0.1828,0.1996,0.2129,0.1882,0.1886,0.1795,0.1865,0.1729,0.2282,0.2216,0.2238,0.2319,0.2169,0,0,0,0,0]},{"header":{"parameterUnit":"m.s-1","parameterCategory":2,"la1":30.2991,"la2":30.254,"lo1":-89.0895,"lo2":-89.0444,"dy":0.0017,"dx":0.0017,"nx":28,"ny":28,"refTime":"2025-11-20T09:00:00:Z","depth":"2","parameterNumber":3,"parameterNumberName":"V-component_of_CURRENTS"},"data":[0,0,0,0,0,0,0,0,0,0,0,0,0,0,0,0,0,0,0,0,0,0,0,0,0,0,0,0,0,0,0,0,0,0,0,0,0,0,0,0,0,0,0,0,0,0,0,0,0,0,0,0,0,0,0,0,0,0,-0.0129,-0.0129,0,-0.0188,-0.0189,-0.019,-0.0232,-0.0232,-0.0233,-0.0233,-0.0327,-0.033,-0.0332,0,0,0,0,0,0,0,0,0,0,0,0,0,-0.0087,-0.0087,-0.0129,-0.0129,-0.013,-0.0188,-0.0189,-0.019,-0.0232,-0.0232,-0.0233,-0.0233,-0.0327,-0.0329,-0.0332,0,0,0,0,0,0,0,0,0,0,0,0,0,-0.0122,-0.0087,-0.0129,-0.0158,-0.0161,-0.0188,-0.0189,-0.019,-0.0232,-0.0232,-0.0233,-0.0233,-0.0326,-0.0329,-0.0332,-0.0345,0,0,-0.0343,-0.0344,0,0,0,0,0,0,0,0,-0.012,-0.0123,-0.0153,-0.0156,-0.0159,-0.0203,-0.0209,-0.0244,-0.0232,-0.0205,-0.0233,-0.0233,-0.0288,-0.0295,-0.0305,-0.0349,-0.0353,-0.0343,-0.0345,-0.0346,-0.0347,0,0,0,0,0,0,0,-0.0117,-0.0121,-0.0153,-0.0153,-0.0157,-0.018,-0.0185,-0.0216,-0.0245,-0.0208,-0.0211,-0.0216,-0.029,-0.0302,-0.0308,-0.0355,-0.0343,-0.0346,-0.0348,-0.0349,-0.0417,-0.0417,0,0,0,0,0,0,-0.0106,-0.0119,-0.0151,-0.0155,-0.014,-0.018,-0.0186,-0.0189,-0.0244,-0.0252,-0.0216,-0.0218,-0.0296,-0.0304,-0.0311,-0.0328,-0.0346,-0.035,-0.0352,-0.0417,-0.0417,-0.0417,0,0,0,0,0,0,-0.0105,-0.0109,-0.0149,-0.0138,-0.0145,-0.018,-0.0183,-0.019,-0.0202,-0.025,-0.0259,-0.0222,-0.0297,-0.0307,-0.0336,-0.0332,-0.0351,-0.0354,-0.0418,-0.0417,-0.0417,-0.0362,0,0,0,0,0,0,-0.0104,-0.0108,-0.0105,-0.0137,-0.0145,-0.0159,-0.0183,-0.0191,-0.0205,-0.0208,-0.0258,-0.0267,-0.0298,-0.0331,-0.0339,-0.0337,-0.0357,-0.0418,-0.0418,-0.0417,-0.0364,-0.0359,-0.0356,0,0,0,0,0,-0.0102,-0.0094,-0.0105,-0.0109,-0.014,-0.0159,-0.0165,-0.0192,-0.0205,-0.0206,-0.024,-0.0265,-0.0334,-0.0333,-0.0344,-0.0342,-0.0418,-0.0418,-0.0417,-0.0365,-0.036,-0.0356,0,0,0,0,0,0,-0.0074,-0.0099,-0.0111,-0.0111,-0.0131,-0.0166,-0.0169,-0.0188,-0.0216,-0.0219,-0.0265,-0.0276,-0.03,-0.0328,-0.0326,-0.036,-0.038,-0.0381,-0.0337,-0.0332,-0.0328,-0.0322,-0.036,0,0,0,0,0,-0.0066,-0.0067,-0.0096,-0.0095,-0.0103,-0.0135,-0.0146,-0.0164,-0.0192,-0.0205,-0.0239,-0.0274,-0.0305,-0.0324,-0.0354,-0.0374,-0.0401,-0.0379,-0.0375,-0.0371,-0.0373,-0.0407,-0.0406,-0.0415,-0.0415,-0.0415,0,0,-0.0056,-0.0069,-0.007,-0.009,-0.0107,-0.0112,-0.0142,-0.0154,-0.016,-0.0211,-0.0228,-0.0262,-0.0307,-0.0328,-0.0341,-0.0352,-0.0381,-0.0371,-0.0367,-0.0371,-0.0406,-0.0405,-0.0404,-0.0415,-0.0415,-0.0415,0,0,-0.0034,-0.0046,-0.004,-0.0051,-0.0072,-0.0092,-0.0092,-0.0123,-0.014,-0.0161,-0.0197,-0.0228,-0.0273,-0.0305,-0.0327,-0.032,-0.0358,-0.0328,-0.0305,-0.0337,-0.0337,-0.0337,-0.0361,-0.0364,-0.0327,-0.0327,-0.0327,0,-0.0021,-0.0018,-0.0041,-0.0037,-0.0041,-0.0079,-0.0072,-0.0094,-0.0131,-0.014,-0.0158,-0.0225,-0.0263,-0.0294,-0.0293,-0.0311,-0.0333,-0.0318,-0.0332,-0.0332,-0.0333,-0.0359,-0.0362,-0.0324,-0.0324,-0.0325,-0.0325,0,0.0006,0.0007,0.0011,0.0004,-0.0002,-0.0003,-0.0031,-0.0043,-0.0067,-0.0091,-0.0124,-0.0178,-0.0216,-0.0234,-0.0265,-0.0289,-0.0303,-0.0321,-0.0342,-0.0329,-0.0357,-0.0361,-0.032,-0.0321,-0.0322,-0.0323,0,0,0.0036,0.003,0.0031,0.0038,0.002,0.002,0.0013,-0.0005,-0.0003,-0.0051,-0.0054,-0.0123,-0.0152,-0.018,-0.0224,-0.026,-0.0286,-0.029,-0.0293,-0.031,-0.0352,-0.0367,-0.0374,-0.0305,-0.0306,-0.0306,-0.0366,0,0.0061,0.0083,0.007,0.0089,0.0099,0.0071,0.0071,0.0052,0.0029,0.0019,-0.0046,-0.0066,-0.0132,-0.0143,-0.0193,-0.0257,-0.0297,-0.0268,-0.0367,-0.0369,-0.0381,-0.038,-0.0344,-0.0395,-0.037,-0.0371,-0.0372,0,0.0091,0.0103,0.013,0.0138,0.014,0.0144,0.0148,0.0144,0.0116,0.01,0.0059,0.0014,-0.0047,-0.0096,-0.0219,-0.0196,-0.0272,-0.033,-0.0334,-0.0373,-0.0394,-0.0407,-0.0405,-0.038,-0.038,-0.0379,-0.0378,0,0.0133,0.0144,0.017,0.0173,0.0176,0.0183,0.0184,0.0169,0.0189,0.0158,0.0177,0.0079,0.0061,-0.0063,-0.0196,-0.0203,-0.0324,-0.0346,-0.0435,-0.0437,-0.0439,-0.044,-0.0434,-0.0434,-0.0434,-0.0434,-0.0434,0,0.0168,0.0186,0.0192,0.0208,0.0246,0.0231,0.0271,0.0257,0.0268,0.0302,0.0227,0.0227,0.007,-0.0019,-0.0164,-0.0314,-0.0305,-0.0434,-0.0456,-0.0418,-0.0416,-0.0432,-0.0431,-0.0436,-0.0436,-0.0435,-0.0435,0,0.0206,0.0208,0.0241,0.0255,0.0268,0.0296,0.0345,0.0377,0.0376,0.0423,0.0424,0.0356,0.0233,0.0066,-0.012,-0.0248,-0.0406,-0.0464,-0.0406,-0.0421,-0.0503,-0.0499,-0.0562,-0.0563,-0.0564,-0.0564,-0.0565,0,0.0227,0.0249,0.0287,0.0321,0.0329,0.0375,0.0417,0.0431,0.0479,0.049,0.0524,0.0437,0.0377,0.0108,-0.0139,-0.0379,-0.0414,-0.0495,-0.0512,-0.0502,-0.0518,-0.0512,-0.0506,-0.0489,-0.0489,-0.0489,-0.0489,0,0.0269,0.028,0.0311,0.0381,0.043,0.0498,0.0558,0.0614,0.0635,0.0663,0.0673,0.0628,0.0395,0.0164,-0.0147,-0.0316,-0.0457,-0.0503,-0.0508,-0.0462,-0.0439,-0.0453,-0.0449,-0.0489,-0.0489,-0.0489,-0.0489,-0.0489,0.0301,0.0334,0.0379,0.0445,0.0519,0.0612,0.0667,0.0729,0.0797,0.0838,0.0784,0.0735,0.0486,0.0101,-0.0178,-0.0454,-0.046,-0.0548,-0.0546,-0.0545,-0.0525,-0.0505,-0.0563,-0.0564,-0.0564,-0.0564,-0.0565,0,0.0333,0.0379,0.0444,0.0527,0.0611,0.0641,0.0759,0.0796,0.0866,0.0914,0.091,0.069,0.0444,0.0167,-0.0237,-0.0493,-0.0507,-0.0565,-0.0521,-0.052,-0.0519,-0.0497,-0.0528,-0.0529,-0.0529,-0.053,0,0,0.0354,0.0415,0.0449,0.0587,0.0655,0.0765,0.0831,0.0879,0.0935,0.0952,0.0951,0.0894,0.0558,0.028,-0.007,-0.0291,-0.0346,-0.0337,-0.0342,-0.0249,-0.0244,-0.0488,-0.045,0,0,0,0,0]}],[{"header":{"parameterUnit":"m.s-1","parameterCategory":2,"la1":30.2991,"la2":30.254,"lo1":-89.0895,"lo2":-89.0444,"dy":0.0017,"dx":0.0017,"nx":28,"ny":28,"refTime":"2025-11-20T09:00:00:Z","depth":"4","parameterNumber":2,"parameterNumberName":"U-component_of_CURRENTS"},"data":[0,0,0,0,0,0,0,0,0,0,0,0,0,0,0,0,0,0,0,0,0,0,0,0,0,0,0,0,0,0,0,0,0,0,0,0,0,0,0,0,0,0,0,0,0,0,0,0,0,0,0,0,0,0,0,0,0,0,0.1165,0.1166,0,0.1225,0.1226,0.1226,0.1276,0.1276,0.1277,0.1277,0.1338,0.1339,0.134,0,0,0,0,0,0,0,0,0,0,0,0,0,0.1092,0.1093,0.1165,0.1166,0.1167,0.1225,0.1226,0.1226,0.1275,0.1276,0.1277,0.1278,0.1338,0.1339,0.1341,0,0,0,0,0,0,0,0,0,0,0,0,0,0.1134,0.1093,0.1165,0.1199,0.1203,0.1225,0.1226,0.1227,0.1275,0.1276,0.1277,0.1278,0.1338,0.1339,0.1341,0.1331,0,0,0.1345,0.1346,0,0,0,0,0,0,0,0,0.1131,0.1136,0.1193,0.1197,0.1201,0.1245,0.1222,0.1262,0.1275,0.1246,0.1277,0.1278,0.1307,0.1311,0.1319,0.1334,0.1337,0.1346,0.1347,0.1347,0.1348,0,0,0,0,0,0,0,0.1128,0.1134,0.1187,0.1194,0.1199,0.1211,0.1218,0.123,0.127,0.1249,0.1253,0.1261,0.1309,0.1317,0.1321,0.1338,0.1346,0.1347,0.1348,0.1349,0.1434,0.1436,0,0,0,0,0,0,0.1122,0.1131,0.1186,0.1189,0.1169,0.1212,0.122,0.1229,0.127,0.1277,0.1261,0.1263,0.1314,0.1319,0.1323,0.1391,0.1347,0.1349,0.135,0.1433,0.1435,0.1436,0,0,0,0,0,0,0.1121,0.1127,0.1183,0.1162,0.1171,0.1212,0.1222,0.123,0.1265,0.1279,0.1286,0.1291,0.1315,0.1321,0.1361,0.1391,0.1349,0.1351,0.1431,0.1434,0.1435,0.1478,0,0,0,0,0,0,0.1118,0.1126,0.1143,0.1162,0.1172,0.1214,0.1222,0.123,0.1267,0.1272,0.1307,0.1312,0.1316,0.1359,0.1363,0.1392,0.1352,0.143,0.1432,0.1435,0.1474,0.1481,0.1486,0,0,0,0,0,0.1115,0.1131,0.1143,0.1151,0.119,0.1215,0.1222,0.1253,0.1268,0.1287,0.1315,0.1313,0.1378,0.1361,0.1366,0.1396,0.1429,0.1432,0.1435,0.1472,0.1479,0.1486,0,0,0,0,0,0,0.1109,0.1138,0.1152,0.1176,0.1203,0.1225,0.125,0.1266,0.1302,0.1317,0.1327,0.1334,0.1381,0.1382,0.1364,0.1429,0.1404,0.1408,0.1431,0.1438,0.1444,0.144,0.1353,0,0,0,0,0,0.1114,0.1136,0.1161,0.1185,0.1201,0.1229,0.1249,0.127,0.1298,0.1316,0.1341,0.1368,0.1391,0.1411,0.143,0.1463,0.1468,0.1486,0.1492,0.1497,0.1498,0.1534,0.1543,0.1446,0.1446,0.1446,0,0,0.1117,0.1138,0.115,0.1186,0.1211,0.1234,0.1244,0.1283,0.1308,0.1316,0.1368,0.139,0.1405,0.1446,0.1467,0.1455,0.153,0.1501,0.1505,0.1503,0.1538,0.1548,0.1556,0.1448,0.1448,0.1447,0,0,0.1123,0.1156,0.1172,0.1197,0.124,0.1258,0.1274,0.1312,0.1341,0.1384,0.14,0.144,0.1476,0.1495,0.1506,0.1555,0.1558,0.1568,0.1597,0.1633,0.1641,0.1648,0.1673,0.1682,0.1573,0.1573,0.1573,0,0.1127,0.1153,0.1182,0.1204,0.1232,0.127,0.1296,0.1324,0.1373,0.1401,0.1409,0.1483,0.1496,0.1544,0.1564,0.1568,0.1587,0.1568,0.164,0.1647,0.1654,0.1677,0.1687,0.1575,0.1575,0.1574,0.1574,0,0.1139,0.1169,0.1185,0.1226,0.1258,0.1292,0.1331,0.1372,0.1412,0.1441,0.151,0.1535,0.1581,0.1593,0.1592,0.1652,0.1651,0.1642,0.162,0.1666,0.1688,0.1697,0.1578,0.1578,0.1577,0.1576,0,0,0.1117,0.118,0.1188,0.1215,0.1278,0.1302,0.1355,0.141,0.1452,0.1506,0.1564,0.1607,0.1639,0.1653,0.1669,0.1697,0.1759,0.1695,0.1696,0.1715,0.1841,0.1752,0.1753,0.177,0.1771,0.1773,0.184,0,0.1121,0.1161,0.1199,0.1249,0.1275,0.1334,0.1376,0.1434,0.1491,0.1556,0.1602,0.1665,0.1657,0.1698,0.1725,0.1754,0.1785,0.1741,0.1797,0.1798,0.171,0.176,0.1778,0.1846,0.1848,0.185,0.1851,0,0.1115,0.1148,0.1195,0.1266,0.1285,0.1325,0.1415,0.1463,0.1554,0.16,0.1673,0.1719,0.1787,0.177,0.1841,0.182,0.1837,0.1847,0.185,0.1755,0.1725,0.179,0.1867,0.1866,0.1864,0.1863,0.1862,0,0.1077,0.1144,0.1186,0.1212,0.1294,0.1338,0.1393,0.1483,0.1538,0.1649,0.1706,0.1782,0.1843,0.1876,0.1912,0.1891,0.1979,0.1949,0.1882,0.1876,0.1917,0.1909,0.1997,0.1997,0.1997,0.1997,0.1997,0,0.1056,0.109,0.1176,0.1198,0.1259,0.133,0.1411,0.1471,0.1577,0.165,0.1739,0.1803,0.1876,0.1938,0.1945,0.1946,0.2012,0.1895,0.1891,0.1934,0.1927,0.1924,0.1914,0.1999,0.1999,0.1998,0.1998,0,0.1002,0.1058,0.1109,0.1205,0.1241,0.129,0.1417,0.1473,0.1578,0.168,0.1726,0.1846,0.1924,0.198,0.2041,0.1986,0.1996,0.198,0.2036,0.2033,0.1859,0.1851,0.1901,0.1898,0.1896,0.1894,0.1893,0,0.0977,0.0997,0.1103,0.1143,0.1194,0.1282,0.1342,0.146,0.1521,0.1692,0.173,0.1861,0.1928,0.1938,0.1997,0.2013,0.1989,0.1975,0.1895,0.1859,0.1851,0.1846,0.1842,0.1889,0.1889,0.1888,0.1887,0,0.0926,0.0974,0.1018,0.1097,0.1168,0.1242,0.1339,0.1372,0.1515,0.1623,0.17,0.1756,0.1843,0.1883,0.1918,0.1921,0.1968,0.1951,0.1954,0.1879,0.1846,0.1839,0.1837,0.188,0.1881,0.1882,0.1882,0,0.0893,0.0911,0.0978,0.1042,0.1126,0.1183,0.1241,0.132,0.1392,0.1566,0.1591,0.1725,0.1831,0.1838,0.187,0.1871,0.1833,0.1753,0.1766,0.1775,0.1703,0.1641,0.1616,0,0,0,0,0,0.0857,0.0875,0.0923,0.0989,0.1068,0.1123,0.1232,0.1293,0.1424,0.1441,0.151,0.1587,0.165,0.1715,0.1691,0.1817,0.1839,0.1781,0.1753,0.1839,0.1847,0.1773,0,0,0,0,0,0,0.0833,0.0874,0.0895,0.0934,0.0974,0.1055,0.1123,0.1212,0.1223,0.1356,0.1395,0.1495,0.1575,0.1651,0.1662,0.1682,0.1633,0.186,0.1856,0.1834,0.1842,0.1848,0.1776,0,0,0,0,0]},{"header":{"parameterUnit":"m.s-1","parameterCategory":2,"la1":30.2991,"la2":30.254,"lo1":-89.0895,"lo2":-89.0444,"dy":0.0017,"dx":0.0017,"nx":28,"ny":28,"refTime":"2025-11-20T09:00:00:Z","depth":"4","parameterNumber":3,"parameterNumberName":"V-component_of_CURRENTS"},"data":[0,0,0,0,0,0,0,0,0,0,0,0,0,0,0,0,0,0,0,0,0,0,0,0,0,0,0,0,0,0,0,0,0,0,0,0,0,0,0,0,0,0,0,0,0,0,0,0,0,0,0,0,0,0,0,0,0,0,-0.0041,-0.0042,0,-0.0087,-0.0088,-0.0089,-0.012,-0.0121,-0.0121,-0.0121,-0.0191,-0.0193,-0.0195,0,0,0,0,0,0,0,0,0,0,0,0,0,-0.0014,-0.0014,-0.0041,-0.0042,-0.0042,-0.0087,-0.0088,-0.0089,-0.012,-0.0121,-0.0121,-0.0121,-0.0191,-0.0193,-0.0195,0,0,0,0,0,0,0,0,0,0,0,0,0,-0.004,-0.0014,-0.0041,-0.0063,-0.0066,-0.0087,-0.0088,-0.0089,-0.012,-0.0121,-0.0121,-0.0121,-0.019,-0.0192,-0.0195,-0.0205,0,0,-0.0203,-0.0204,0,0,0,0,0,0,0,0,-0.0038,-0.0041,-0.0059,-0.0062,-0.0064,-0.0098,-0.0104,-0.0129,-0.012,-0.01,-0.0121,-0.0121,-0.0162,-0.0167,-0.0175,-0.0208,-0.0211,-0.0203,-0.0204,-0.0206,-0.0206,0,0,0,0,0,0,0,-0.0036,-0.0039,-0.006,-0.006,-0.0063,-0.0082,-0.0086,-0.0109,-0.0129,-0.0102,-0.0104,-0.0108,-0.0163,-0.0172,-0.0177,-0.0212,-0.0203,-0.0205,-0.0207,-0.0208,-0.0275,-0.0275,0,0,0,0,0,0,-0.0028,-0.0037,-0.0059,-0.0061,-0.0051,-0.0082,-0.0086,-0.0087,-0.0129,-0.0135,-0.0108,-0.011,-0.0168,-0.0174,-0.018,-0.0191,-0.0206,-0.0208,-0.0209,-0.0274,-0.0275,-0.0275,0,0,0,0,0,0,-0.0027,-0.0029,-0.0057,-0.005,-0.0055,-0.0082,-0.0083,-0.0088,-0.01,-0.0133,-0.014,-0.0115,-0.0168,-0.0176,-0.0202,-0.0194,-0.0209,-0.0211,-0.0274,-0.0274,-0.0275,-0.0216,0,0,0,0,0,0,-0.0026,-0.0028,-0.0027,-0.0049,-0.0055,-0.0066,-0.0083,-0.0089,-0.0102,-0.0104,-0.0141,-0.0148,-0.0169,-0.0198,-0.0205,-0.0198,-0.0213,-0.0274,-0.0274,-0.0275,-0.0217,-0.0214,-0.0211,0,0,0,0,0,-0.0024,-0.0018,-0.0026,-0.0029,-0.0052,-0.0066,-0.007,-0.0091,-0.0102,-0.0104,-0.0131,-0.0147,-0.0206,-0.02,-0.0208,-0.0202,-0.0273,-0.0274,-0.0275,-0.0219,-0.0215,-0.0211,0,0,0,0,0,0,-0.0006,-0.0021,-0.0031,-0.003,-0.0046,-0.0071,-0.0074,-0.009,-0.0113,-0.0117,-0.015,-0.0158,-0.0179,-0.0203,-0.0196,-0.0225,-0.0243,-0.0245,-0.0197,-0.0194,-0.0191,-0.0164,-0.0215,0,0,0,0,0,-0.0,0.0001,-0.002,-0.0019,-0.0025,-0.005,-0.0059,-0.0073,-0.0096,-0.0107,-0.0132,-0.0162,-0.0187,-0.02,-0.0227,-0.024,-0.0267,-0.0244,-0.024,-0.0237,-0.0222,-0.0252,-0.0249,-0.0277,-0.0277,-0.0277,0,0,0.0007,-0.0002,-0.0001,-0.0016,-0.0029,-0.0026,-0.0056,-0.0066,-0.0063,-0.0111,-0.0118,-0.0154,-0.0191,-0.0206,-0.0218,-0.0223,-0.0249,-0.0238,-0.0235,-0.0221,-0.0252,-0.0249,-0.0246,-0.0277,-0.0277,-0.0277,0,0,0.0028,0.0015,0.0026,0.0018,0.0002,-0.0012,-0.0013,-0.0038,-0.0049,-0.0065,-0.0098,-0.0125,-0.0165,-0.0183,-0.0199,-0.0196,-0.0234,-0.0213,-0.017,-0.0199,-0.0196,-0.0194,-0.0242,-0.0245,-0.0208,-0.0208,-0.0207,0,0.0038,0.0049,0.0026,0.0036,0.0036,-0.0,0.0014,-0.0001,-0.0031,-0.0037,-0.006,-0.0116,-0.0148,-0.016,-0.0161,-0.0186,-0.0218,-0.0177,-0.0192,-0.0191,-0.019,-0.0239,-0.0243,-0.0205,-0.0205,-0.0205,-0.0206,0,0.0069,0.0079,0.0084,0.0089,0.0084,0.0088,0.0068,0.006,0.0037,0.0019,-0.0007,-0.0055,-0.0086,-0.0105,-0.0131,-0.0139,-0.0172,-0.0186,-0.0195,-0.0183,-0.0237,-0.0242,-0.0201,-0.0202,-0.0203,-0.0203,0,0,0.0091,0.0106,0.0107,0.012,0.0113,0.0112,0.012,0.0114,0.0116,0.008,0.0076,0.0032,-0.0003,-0.0023,-0.0065,-0.0087,-0.0117,-0.0128,-0.0131,-0.0163,-0.0198,-0.0202,-0.0208,-0.0136,-0.0136,-0.0136,-0.0245,0,0.0123,0.0158,0.0155,0.0186,0.0202,0.0182,0.0194,0.0182,0.0156,0.0141,0.0094,0.0067,0.0031,0.0006,-0.0017,-0.0099,-0.0124,-0.0087,-0.0215,-0.0219,-0.0213,-0.0211,-0.0136,-0.0249,-0.025,-0.0251,-0.0252,0,0.0154,0.0175,0.0214,0.0238,0.0243,0.0255,0.026,0.0263,0.0237,0.0216,0.0186,0.0135,0.0091,0.0057,-0.0048,-0.0026,-0.0098,-0.0158,-0.0164,-0.0184,-0.023,-0.0262,-0.0261,-0.026,-0.026,-0.0259,-0.0258,0,0.0177,0.0214,0.0248,0.0256,0.0278,0.029,0.0296,0.0284,0.0286,0.0255,0.0237,0.0183,0.013,0.0056,-0.0074,-0.0064,-0.02,-0.0206,-0.0275,-0.0278,-0.0267,-0.0268,-0.0264,-0.0264,-0.0264,-0.0263,-0.0263,0,0.0208,0.0234,0.0261,0.0279,0.0317,0.0319,0.0343,0.034,0.0331,0.0331,0.0272,0.0246,0.0127,0.0029,-0.0064,-0.0194,-0.0198,-0.0262,-0.0297,-0.0245,-0.0242,-0.0273,-0.0272,-0.0268,-0.0267,-0.0266,-0.0265,0,0.0221,0.0243,0.0281,0.0315,0.0329,0.0349,0.0375,0.0388,0.0373,0.0367,0.0355,0.0272,0.0153,0.0023,-0.0128,-0.0196,-0.031,-0.0354,-0.0309,-0.0341,-0.0371,-0.0366,-0.0425,-0.0426,-0.0427,-0.0427,-0.0428,0,0.023,0.0253,0.0301,0.0325,0.034,0.0373,0.0398,0.0408,0.0416,0.0382,0.0376,0.0265,0.0197,-0.0019,-0.0151,-0.0332,-0.035,-0.0419,-0.0361,-0.0355,-0.0383,-0.0377,-0.0372,-0.0429,-0.0429,-0.0429,-0.043,0,0.0239,0.0255,0.0284,0.0335,0.0368,0.041,0.0439,0.0452,0.0456,0.0444,0.0396,0.029,0.015,-0.0006,-0.0166,-0.0288,-0.0374,-0.0427,-0.0425,-0.0371,-0.036,-0.0386,-0.038,-0.0432,-0.0432,-0.0432,-0.0431,0,0.0236,0.0253,0.0289,0.0331,0.0379,0.0421,0.0447,0.0458,0.047,0.0444,0.0424,0.029,0.0208,0.0014,-0.0126,-0.0255,-0.0267,-0.0294,-0.0299,-0.0299,-0.0221,-0.0187,-0.0229,0,0,0,0,0,0.0225,0.0239,0.0281,0.0324,0.0376,0.0405,0.0459,0.048,0.049,0.0469,0.0453,0.0336,0.0141,0.0049,-0.0076,-0.0144,-0.0303,-0.0295,-0.034,-0.0446,-0.0443,-0.0372,0,0,0,0,0,0,0.0212,0.0245,0.0269,0.031,0.0339,0.0395,0.0436,0.0454,0.0445,0.0441,0.0343,0.03,0.0108,0.0207,-0.0083,-0.0124,-0.0169,-0.0387,-0.0389,-0.0447,-0.0445,-0.0442,-0.0369,0,0,0,0,0]}]]